Weather History for KLFI - February, 2014

Change the Weather History Date:

Wednesday, February 19, 2014

  Actual Average Record
Temperature  
Mean Temperature 54 °F -  
Max Temperature 67 °F 54 °F 74 °F (1939)
Min Temperature 41 °F 36 °F 11 °F (2015)
Degree Days  
Heating Degree Days 11    
Growing Degree Days 4 (Base 50)    
Moisture  
Dew Point 47 °F    
Average Humidity 69    
Maximum Humidity 87    
Minimum Humidity 41    
Precipitation  
Precipitation 0.00 in - - ()
Sea Level Pressure  
Sea Level Pressure 29.96 in    
Wind  
Wind Speed 12 mph (SW)    
Max Wind Speed 26 mph    
Max Gust Speed 34 mph    
Visibility 10 miles    
Events      
Averages and records for this station are not official NWS values.
T = Trace of Precipitation, MM = Missing Value Source: NWS Daily Summary

Daily Weather History Graph

Daily Weather History Graph

Search for Another Location

Airport or City:

Trip Planner

Search our weather history database for the weather conditions in past years. The results will help you decide how hot, cold, wet, or windy it might be!

Date:

Astronomy

Feb. 19, 2014 Rise Set
Actual Time 6:49 AM EST 5:49 PM EST
Civil Twilight 6:23 AM EST 6:16 PM EST
Nautical Twilight 5:52 AM EST 6:46 PM EST
Astronomical Twilight 5:22 AM EST 7:16 PM EST
Moon 10:32 PM EST (2/19) 9:01 AM EST (2/19)
Length of Visible Light 11h 53m
Length of Day
11h 00m
Waning Gibbous, 80% of the Moon is Illuminated
Feb 19
Waning Gibbous
Feb 22
Last Quarter
Mar 1
New
Mar 8
First Quarter
Mar 16
Full

Hourly Weather History & Observations

Time (EST) Temp. Windchill Dew Point Humidity Pressure Visibility Wind Dir Wind Speed Gust Speed Precip Events Conditions
12:58 AM 41.7 °F 38.0 °F 27.9 °F 58% 30.13 in 10.0 mi South 5.8 mph - N/A   Clear
1:58 AM 42.6 °F 38.4 °F 28.6 °F 58% 30.10 in 10.0 mi South 6.9 mph - N/A   Clear
2:58 AM 43.2 °F 38.4 °F 28.4 °F 56% 30.13 in 10.0 mi SSW 8.1 mph - N/A   Clear
3:58 AM 42.4 °F 37.5 °F 29.5 °F 60% 30.07 in 10.0 mi SSE 8.1 mph - N/A   Clear
4:58 AM 43.3 °F 38.6 °F 34.2 °F 70% 30.04 in 10.0 mi South 8.1 mph - N/A   Clear
5:58 AM 44.6 °F 39.7 °F 37.8 °F 77% 30.02 in 10.0 mi South 9.2 mph - N/A   Clear
6:58 AM 47.1 °F - 42.1 °F 83% 29.99 in 10.0 mi South 9.2 mph - N/A   Overcast
7:58 AM 50.0 °F - 46.2 °F 87% 29.98 in 10.0 mi South 10.4 mph - N/A   Scattered Clouds
8:58 AM 54.5 °F - 50.2 °F 85% 29.96 in 10.0 mi SW 13.8 mph 23.0 mph N/A   Scattered Clouds
9:58 AM 59.4 °F - 52.3 °F 78% 29.94 in 10.0 mi SSW 21.9 mph 25.3 mph N/A   Partly Cloudy
10:58 AM 63.9 °F - 51.1 °F 63% 29.92 in 10.0 mi SW 15.0 mph 25.3 mph N/A   Mostly Cloudy
11:38 AM 64.4 °F - 53.6 °F 68% 29.87 in 10.0 mi SW 20.7 mph 31.1 mph N/A   Mostly Cloudy
11:43 AM 64.4 °F - 55.4 °F 73% 29.87 in 10.0 mi SW 20.7 mph 31.1 mph N/A   Mostly Cloudy
11:58 AM 63.5 °F - 55.0 °F 74% 29.88 in 10.0 mi SW 18.4 mph 25.3 mph N/A   Mostly Cloudy
12:13 PM 62.6 °F - 55.4 °F 77% 29.85 in 10.0 mi WSW 19.6 mph 29.9 mph N/A   Mostly Cloudy
12:58 PM 64.9 °F - 55.9 °F 73% 29.85 in 10.0 mi SW 23.0 mph 28.8 mph N/A   Mostly Cloudy
1:03 PM 64.4 °F - 55.4 °F 73% 29.82 in 10.0 mi SW 19.6 mph 28.8 mph N/A   Mostly Cloudy
1:58 PM 64.2 °F - 55.8 °F 74% 29.83 in 10.0 mi WSW 26.5 mph 34.5 mph N/A   Mostly Cloudy
2:18 PM 66.2 °F - 55.4 °F 68% 29.81 in 10.0 mi WSW 25.3 mph 33.4 mph N/A   Scattered Clouds
2:58 PM 66.9 °F - 55.6 °F 67% 29.83 in 10.0 mi SW 24.2 mph 33.4 mph N/A   Clear
3:58 PM 67.8 °F - 54.1 °F 62% 29.83 in 10.0 mi WSW 20.7 mph 32.2 mph N/A   Clear
4:58 PM 67.1 °F - 53.4 °F 61% 29.86 in 10.0 mi SW 20.7 mph 25.3 mph N/A   Clear
5:58 PM 64.8 °F - 53.8 °F 68% 29.90 in 10.0 mi SW 11.5 mph - N/A   Clear
6:58 PM 63.1 °F - 53.8 °F 71% 29.94 in 10.0 mi SW 9.2 mph - N/A   Clear
7:58 PM 61.3 °F - 53.8 °F 76% 29.98 in 10.0 mi SW 9.2 mph - N/A   Clear
8:58 PM 59.7 °F - 52.3 °F 77% 30.03 in 10.0 mi WSW 6.9 mph - N/A   Clear
9:58 PM 59.5 °F - 49.5 °F 69% 30.09 in 10.0 mi NNW 6.9 mph - N/A   Clear
10:58 PM 57.4 °F - 34.0 °F 41% 30.13 in 10.0 mi NW 8.1 mph - N/A   Clear
11:58 PM 53.1 °F - 32.7 °F 46% 30.15 in 10.0 mi North 8.1 mph - N/A   Clear